Weather History for HTMT - February, 2014

Change the Weather History Date:

Wednesday, February 5, 2014

  Actual Average Record
Temperature  
Mean Temperature 82 °F -  
Max Temperature 89 °F - - ()
Min Temperature 76 °F - - ()
Cooling Degree Days 18    
Growing Degree Days 32 (Base 50)    
Moisture  
Dew Point 76 °F    
Average Humidity 79    
Maximum Humidity 89    
Minimum Humidity 57    
Precipitation  
Precipitation 0.00 in 0.23 in - ()
Sea Level Pressure  
Sea Level Pressure 29.71 in    
Wind  
Wind Speed 8 mph ()    
Max Wind Speed 18 mph    
Max Gust Speed -    
Visibility 10.3 miles    
Events Thunderstorm    
T = Trace of Precipitation, MM = Missing Value Source: Averaged Metar Reports

Daily Weather History Graph

Daily Weather History Graph

Search for Another Location

Airport or City:

Trip Planner

Search our weather history database for the weather conditions in past years. The results will help you decide how hot, cold, wet, or windy it might be!

Date:

Astronomy

Feb. 05, 2014 Rise Set
Actual Time 6:17 AM EAT 6:48 PM EAT
Civil Twilight 5:55 AM EAT 7:10 PM EAT
Nautical Twilight 5:30 AM EAT 7:36 PM EAT
Astronomical Twilight 5:04 AM EAT 8:02 PM EAT
Moon 11:14 AM EAT (2/5) 11:19 PM EAT (2/5)
Length of Visible Light 13h 14m
Length of Day
12h 30m
Waxing Crescent, 35% of the Moon is Illuminated
Feb 5
Waxing Crescent
Feb 6
First Quarter
Feb 15
Full
Feb 22
Last Quarter
Mar 1
New

Hourly Weather History & Observations

Time (EAT) Temp. Heat Index Dew Point Humidity Pressure Visibility Wind Dir Wind Speed Gust Speed Precip Events Conditions
12:00 AM 80 °F - 75 °F 80%  in 19 mi Calm Calm - -   Partly Cloudy
4:00 AM 78.8 °F - 75.2 °F 89% 29.71 in 6.2 mi Calm Calm - N/A   Partly Cloudy
5:00 AM 78.8 °F - 75.2 °F 89% 29.71 in 6.2 mi Calm Calm - N/A   Partly Cloudy
6:00 AM 78 °F - 75 °F 89% 29.75 in 19 mi NW 8.1 mph - -   Partly Cloudy
6:00 AM 78.8 °F - 75.2 °F 89% 29.74 in 6.2 mi NW 8.1 mph - N/A   Partly Cloudy
7:00 AM 78.8 °F - 75.2 °F 89% 29.74 in 6.2 mi West 6.9 mph - N/A   Mostly Cloudy
8:00 AM 80.6 °F 86.2 °F 75.2 °F 84% 29.74 in 6.2 mi NW 11.5 mph - N/A   Mostly Cloudy
9:00 AM 83 °F - 76 °F 74% 29.77 in 19 mi NNW 13.8 mph - -   Scattered Clouds
9:00 AM 84.2 °F 92.3 °F 75.2 °F 74% 29.74 in 6.2 mi NNW 13.8 mph - N/A   Mostly Cloudy
10:00 AM 87.8 °F 97.6 °F 75.2 °F 66% 29.74 in 6.2 mi NNW 16.1 mph - N/A   Scattered Clouds
12:00 PM 89 °F - 76 °F 57% 29.74 in 19 mi North 17.3 mph - -   Scattered Clouds
3:00 PM 88 °F - 76 °F 59% 29.66 in 19 mi North 18.4 mph - - Thunderstorm Thunderstorm
4:00 PM 87.8 °F 99.7 °F 77.0 °F 70% 29.65 in 6.2 mi NNW 16.1 mph - N/A Thunderstorm Thunderstorm
5:00 PM 84.2 °F 94.1 °F 77.0 °F 79% 29.65 in 6.2 mi NNW 17.3 mph - N/A   Partly Cloudy
6:00 PM 83 °F - 76 °F 75% 29.65 in 19 mi North 12.7 mph - -   Partly Cloudy
6:00 PM 84.2 °F 94.1 °F 77.0 °F 79% 29.65 in 6.2 mi North 12.7 mph - N/A   Partly Cloudy
7:00 PM 82.4 °F 90.9 °F 77.0 °F 84% 29.65 in 6.2 mi North 11.5 mph - N/A   Partly Cloudy
8:00 PM 82.4 °F 90.9 °F 77.0 °F 84% 29.68 in 6.2 mi North 17.3 mph - N/A   Partly Cloudy
9:00 PM 81 °F - 76 °F 80% 29.71 in 19 mi North 16.1 mph - -   Partly Cloudy
9:00 PM 80.6 °F 86.2 °F 75.2 °F 84% 29.68 in 6.2 mi North 16.1 mph - N/A   Partly Cloudy
10:00 PM 80.6 °F 86.2 °F 75.2 °F 84% 29.71 in 6.2 mi NNW 11.5 mph - N/A   Partly Cloudy
11:00 PM 78.8 °F - 75.2 °F 89% 29.74 in 6.2 mi NNW 9.2 mph - N/A   Partly Cloudy